Location: Bennemühlen
(52.5740°N, 9.7135°E)
Time: 20:56:41
(UTC+00:00)

BlueWalker 3 - Pass Details

Date: 19 May 2025
Orbit: 460 x 472 km, 53.2° (Epoch: 14 June)

Event Time Altitude Azimuth Distance (km) Brightness Sun altitude
Rises 21:02:10 0° 286° (WNW) 2,496 6.3 -11.7°
Reaches altitude 10° 21:04:28 10° 276° (W) 1,620 5.1 -11.9°
Maximum altitude 21:07:41 30° 214° (SSW) 862 2.9 -12.2°
Enters shadow 21:09:29 19° 167° (SSE) 1,154 3.2 -12.3°
